User: anonymous   Login
Location: Bidart
(43.4376°N, 1.5913°W)
Time: 01:24:09
(UTC+00:00)
Language:

BlueWalker 3 - Orbit

View from above orbital plane
View from above orbital plane
View from above satellite
View from above satellite

Ground track
Ground track

The orbit data is extracted from the following two-line orbital elements,

1 53807U 22111AL  25198.13950236  .00003436  00000-0  11623-3 0  9996
2 53807  53.2309 161.3962 0005918 215.1976 144.8637 15.33425563158711
Epoch (UTC): 17 July 2025 03:20:53
Eccentricity: 0.0005918
inclination: 53.2309°
perigee height: 461 km
apogee height: 469 km
right ascension of ascending node: 161.3962°
argument of perigee: 215.1976°
revolutions per day: 15.33425563
mean anomaly at epoch: 144.8637°
orbit number at epoch: 15871

The dashed part of the orbit path shows where the satellite is in the earth's shadow,  

DLR